Location: ?????
(31.8092°N, 35.2590°E)
Time: 02:40:02
(UTC+00:00)

Yuri Rocket - Pass Details

Date: 20 June 2021
Orbit: 568 x 1914 km, 28.2° (Epoch: 04 August)

Event Time Altitude Azimuth Distance (km) Brightness Sun altitude
Rises 17:40:08 0° 244° (WSW) 3,107 7.1 -10.3°
Reaches altitude 10° 17:42:19 10° 238° (WSW) 2,318 6.3 -10.7°
Maximum altitude 17:47:38 50° 163° (SSE) 1,192 4.2 -11.6°
Drops below altitude 10° 17:54:58 10° 91° (E) 3,189 6.2 -12.8°
Enters shadow 17:56:11 - 89° (E) 3,611 6.5 -13.0°
